TimeCST,TemperatureF,Dew PointF,Humidity,Sea Level PressureIn,VisibilityMPH,Wind Direction,Wind SpeedMPH,Gust SpeedMPH,PrecipitationIn,Events,Conditions,WindDirDegrees,DateUTC
12:53 AM,41.0,32.0,70,30.11,10.0,Calm,Calm,-,N/A,,Clear,0,2012-11-08 06:53:00
1:53 AM,39.9,33.1,77,30.10,10.0,Calm,Calm,-,N/A,,Clear,0,2012-11-08 07:53:00
2:53 AM,39.9,33.1,77,30.10,10.0,Calm,Calm,-,N/A,,Clear,0,2012-11-08 08:53:00
3:53 AM,41.0,32.0,70,30.08,10.0,Calm,Calm,-,N/A,,Clear,0,2012-11-08 09:53:00
4:53 AM,46.0,32.0,58,30.09,10.0,South,4.6,-,N/A,,Clear,180,2012-11-08 10:53:00
5:53 AM,46.0,30.9,56,30.09,10.0,South,4.6,-,N/A,,Clear,170,2012-11-08 11:53:00
6:53 AM,46.9,32.0,56,30.09,10.0,SSE,6.9,-,N/A,,Clear,160,2012-11-08 12:53:00
7:53 AM,48.9,33.1,54,30.10,10.0,South,11.5,-,N/A,,Clear,170,2012-11-08 13:53:00
9:53 AM,57.9,34.0,41,30.08,10.0,South,11.5,19.6,N/A,,Clear,170,2012-11-08 15:53:00
11:53 AM,69.1,35.1,29,30.00,10.0,SSE,17.3,26.5,N/A,,Clear,160,2012-11-08 17:53:00
12:53 PM,72.0,37.9,29,29.97,10.0,South,15.0,21.9,N/A,,Clear,170,2012-11-08 18:53:00
1:53 PM,75.9,42.1,30,29.93,10.0,South,15.0,27.6,N/A,,Clear,170,2012-11-08 19:53:00
2:53 PM,75.9,43.0,31,29.91,10.0,South,17.3,25.3,N/A,,Clear,170,2012-11-08 20:53:00
3:53 PM,75.9,45.0,33,29.90,10.0,South,16.1,25.3,N/A,,Clear,180,2012-11-08 21:53:00
4:53 PM,72.0,46.0,40,29.91,10.0,South,16.1,24.2,N/A,,Clear,170,2012-11-08 22:53:00
5:53 PM,70.0,46.0,42,29.92,10.0,South,12.7,24.2,N/A,,Clear,170,2012-11-08 23:53:00
6:53 PM,68.0,46.0,45,29.94,10.0,South,12.7,-,N/A,,Clear,170,2012-11-09 00:53:00
7:53 PM,66.0,45.0,47,29.94,10.0,SSE,9.2,-,N/A,,Clear,160,2012-11-09 01:53:00
8:53 PM,64.9,45.0,48,29.95,10.0,South,12.7,18.4,N/A,,Clear,170,2012-11-09 02:53:00
9:53 PM,64.0,45.0,50,29.95,10.0,South,11.5,-,N/A,,Clear,170,2012-11-09 03:53:00
10:53 PM,63.0,45.0,52,29.94,10.0,SSE,6.9,-,N/A,,Clear,160,2012-11-09 04:53:00
11:53 PM,63.0,45.0,52,29.94,10.0,South,9.2,-,N/A,,Clear,170,2012-11-09 05:53:00